User: anonymous   Login
Location: Asheville, NC
(35.6000°N, 82.5500°W)
Time: 04:48:01
(UTC-05:00)
Language:

Iridium 28 - Orbit

View from above orbital plane
View from above orbital plane
View from above satellite
View from above satellite

Ground track
Ground track

The orbit data is extracted from the following two-line orbital elements,

1 24948U 97051E   18017.46345104 +.00000090 +00000-0 +24535-4 0  9995
2 24948 086.3972 196.3634 0001842 083.2252 276.9154 14.35591580065324
Epoch (UTC): 17 January 2018 11:07:22
Eccentricity: 0.0001842
inclination: 86.3972°
perigee height: 772 km
apogee height: 774 km
right ascension of ascending node: 196.3634°
argument of perigee: 83.2252°
revolutions per day: 14.35591580
mean anomaly at epoch: 276.9154°
orbit number at epoch: 6532

The dashed part of the orbit path shows where the satellite is in the earth's shadow,  

DLR